Location: Ammerl�gen
(47.2167°N, 9.6000°E)
Time: 10:22:42
(UTC+00:00)

Cosmos 407 Rocket - Pass Details

Date: 21 April 2021
Orbit: 743 x 787 km, 74.0° (Epoch: 06 May)

Event Time Altitude Azimuth Distance (km) Brightness Sun altitude
Rises 18:56:41 0° 165° (SSE) 3,172 6.3 -6.7°
Reaches altitude 10° 18:59:22 10° 153° (SSE) 2,256 5.5 -7.1°
Maximum altitude 19:03:29 25° 99° (E) 1,482 4.5 -7.8°
Drops below altitude 10° 19:07:38 10° 45° (NE) 2,287 5.8 -8.4°
Sets 19:10:22 0° 33° (NNE) 3,224 6.7 -8.8°
